COSMOS 2058

Last updated on Sat Apr 13 2024 01:02:09 GMT+0100 (British Summer Time)

1 20465U 90010A 24103.21133984 .00004112 00000+0 30410-3 0 9996 2 20465 82.4906 8.3628 0014109 162.9855 197.1847 15.02876664837310
UTC large
Height (km)
Speed (km/s)
/
Latitude / Longitude
Inclination (degrees)
Orbital Period (minutes)
Azimuth
Elevation
Range (km)
Doppler Factor

Next 0 passes for location: London (51.5072 / 0.1276)

Sorry there are no passes over London.